Weather History for KSLH - September, 2013

Change the Weather History Date:

Saturday, September 28, 2013

  Actual Average (KPLN) Record (KPLN)
Temperature  
Mean Temperature 61 °F -  
Max Temperature 77 °F 63 °F 83 °F (1971)
Min Temperature 45 °F 39 °F 19 °F (2000)
Degree Days  
Heating Degree Days 4    
Growing Degree Days 11 (Base 50)    
Moisture  
Dew Point 50 °F    
Average Humidity 66    
Maximum Humidity 91    
Minimum Humidity 35    
Precipitation  
Precipitation 0.00 in - - ()
Sea Level Pressure  
Sea Level Pressure 30.06 in    
Wind  
Wind Speed 7 mph (SSE)    
Max Wind Speed 13 mph    
Max Gust Speed 20 mph    
Visibility 10 miles    
Events      
Averages and records for this station are not official NWS values.
T = Trace of Precipitation, MM = Missing Value Source: NWS Daily Summary

Daily Weather History Graph

Daily Weather History Graph

Search for Another Location

Airport or City:

Trip Planner

Search our weather history database for the weather conditions in past years. The results will help you decide how hot, cold, wet, or windy it might be!

Date:

Astronomy

Sep. 28, 2013 Rise Set
Actual Time 7:32 AM EDT 7:23 PM EDT
Civil Twilight 7:03 AM EDT 7:53 PM EDT
Nautical Twilight 6:28 AM EDT 8:27 PM EDT
Astronomical Twilight 5:53 AM EDT 9:02 PM EDT
Moon 1:04 AM EDT (9/28) 3:56 PM EDT (9/28)
Length of Visible Light 12h 49m
Length of Day
11h 50m
Last Quarter, 36% of the Moon is Illuminated
Sep 28
Last Quarter
Oct 4
New
Oct 11
First Quarter
Oct 18
Full
Oct 26
Last Quarter

Hourly Weather History & Observations

Time (EDT) Temp. Dew Point Humidity Pressure Visibility Wind Dir Wind Speed Gust Speed Precip Events Conditions
12:16 AM 58.1 °F 49.6 °F 73% 30.16 in 10.0 mi SSE 5.8 mph - N/A   Clear
12:36 AM 57.2 °F 49.3 °F 75% 30.17 in 10.0 mi SSE 4.6 mph - N/A   Clear
12:55 AM 56.3 °F 49.1 °F 77% 30.17 in 10.0 mi SSE 5.8 mph - N/A   Clear
1:16 AM 57.0 °F 49.6 °F 76% 30.17 in 10.0 mi SSE 4.6 mph - N/A   Clear
1:36 AM 55.8 °F 50.0 °F 81% 30.17 in 10.0 mi South 3.5 mph - N/A   Clear
1:56 AM 55.6 °F 50.0 °F 81% 30.17 in 10.0 mi SSE 3.5 mph - N/A   Clear
2:16 AM 47.5 °F 43.5 °F 86% 30.17 in 10.0 mi SE 3.5 mph - N/A   Clear
2:35 AM 48.6 °F 44.6 °F 86% 30.17 in 10.0 mi Calm Calm - N/A   Clear
2:56 AM 49.1 °F 46.0 °F 89% 30.17 in 10.0 mi South 3.5 mph - N/A   Clear
3:16 AM 52.7 °F 46.9 °F 81% 30.16 in 10.0 mi SSE 4.6 mph - N/A   Clear
3:36 AM 50.9 °F 44.8 °F 80% 30.16 in 10.0 mi Calm Calm - N/A   Clear
3:56 AM 45.9 °F 42.1 °F 87% 30.16 in 10.0 mi Calm Calm - N/A   Clear
4:16 AM 46.2 °F 42.8 °F 88% 30.15 in 10.0 mi Calm Calm - N/A   Clear
4:36 AM 54.1 °F 48.9 °F 82% 30.16 in 10.0 mi South 4.6 mph - N/A   Clear
4:56 AM 54.1 °F 48.9 °F 82% 30.16 in 10.0 mi SSE 3.5 mph - N/A   Clear
5:15 AM 54.0 °F 49.5 °F 85% 30.16 in 10.0 mi SSE 5.8 mph - N/A   Clear
5:36 AM 54.1 °F 49.6 °F 85% 30.16 in 10.0 mi SSE 5.8 mph - N/A   Clear
5:56 AM 53.8 °F 49.5 °F 85% 30.16 in 10.0 mi SSE 5.8 mph - N/A   Clear
6:15 AM 53.6 °F 49.3 °F 85% 30.16 in 10.0 mi SSE 8.1 mph - N/A   Clear
6:36 AM 53.2 °F 49.5 °F 87% 30.16 in 10.0 mi SSE 6.9 mph - N/A   Clear
6:56 AM 52.9 °F 49.5 °F 88% 30.16 in 10.0 mi SSE 6.9 mph - N/A   Clear
7:16 AM 53.2 °F 50.0 °F 89% 30.17 in 10.0 mi South 4.6 mph - N/A   Clear
7:35 AM 52.7 °F 50.2 °F 91% 30.16 in 10.0 mi SSE 5.8 mph - N/A   Clear
7:56 AM 53.6 °F 51.1 °F 91% 30.17 in 10.0 mi SSE 4.6 mph - N/A   Clear
8:16 AM 54.9 °F 51.8 °F 89% 30.16 in 10.0 mi SSE 4.6 mph - N/A   Clear
8:35 AM 56.3 °F 52.3 °F 87% 30.16 in 10.0 mi SE 8.1 mph - N/A   Clear
8:56 AM 57.4 °F 52.9 °F 85% 30.15 in 10.0 mi SE 9.2 mph - N/A   Clear
9:16 AM 58.3 °F 53.2 °F 83% 30.15 in 10.0 mi SSE 9.2 mph - N/A   Clear
9:36 AM 59.2 °F 53.6 °F 82% 30.15 in 10.0 mi SSE 10.4 mph - N/A   Clear
9:56 AM 59.9 °F 53.6 °F 80% 30.15 in 10.0 mi SSE 11.5 mph - N/A   Clear
10:16 AM 60.1 °F 53.4 °F 79% 30.15 in 10.0 mi SSE 12.7 mph 16.1 mph N/A   Clear
10:36 AM 60.1 °F 53.4 °F 79% 30.14 in 10.0 mi SSE 10.4 mph - N/A   Clear
10:56 AM 61.7 °F 53.8 °F 75% 30.13 in 10.0 mi SE 10.4 mph - N/A   Clear
11:15 AM 63.5 °F 54.5 °F 72% 30.13 in 10.0 mi SSE 10.4 mph - N/A   Clear
11:36 AM 65.5 °F 54.5 °F 68% 30.12 in 10.0 mi SSE 11.5 mph - N/A   Clear
11:55 AM 68.0 °F 54.5 °F 62% 30.11 in 10.0 mi SSE 12.7 mph 19.6 mph N/A   Clear
12:16 PM 69.3 °F 53.2 °F 57% 30.10 in 10.0 mi SSE 10.4 mph 18.4 mph N/A   Clear
12:36 PM 70.3 °F 52.5 °F 53% 30.09 in 10.0 mi South 12.7 mph 19.6 mph N/A   Clear
12:55 PM 71.6 °F 51.8 °F 50% 30.08 in 10.0 mi SSE 10.4 mph 17.3 mph N/A   Clear
1:16 PM 72.5 °F 51.3 °F 47% 30.08 in 10.0 mi SSE 12.7 mph 17.3 mph N/A   Clear
1:36 PM 73.6 °F 51.3 °F 45% 30.06 in 10.0 mi South 11.5 mph 18.4 mph N/A   Clear
1:55 PM 74.1 °F 51.1 °F 44% 30.05 in 10.0 mi SSE 12.7 mph 17.3 mph N/A   Clear
2:16 PM 75.2 °F 50.0 °F 41% 30.04 in 10.0 mi SSE 11.5 mph 18.4 mph N/A   Clear
2:36 PM 75.2 °F 50.0 °F 41% 30.02 in 10.0 mi SSE 9.2 mph 18.4 mph N/A   Clear
2:56 PM 75.7 °F 49.8 °F 40% 30.02 in 10.0 mi South 6.9 mph - N/A   Clear
3:16 PM 76.1 °F 46.2 °F 35% 30.00 in 10.0 mi SSE 10.4 mph 17.3 mph N/A   Clear
3:35 PM 75.9 °F 46.6 °F 35% 29.99 in 10.0 mi South 8.1 mph - N/A   Clear
3:56 PM 76.6 °F 47.8 °F 36% 29.98 in 10.0 mi South 11.5 mph - N/A   Clear
4:15 PM 76.8 °F 48.0 °F 36% 29.97 in 10.0 mi South 9.2 mph - N/A   Clear
4:36 PM 77.0 °F 48.9 °F 37% 29.96 in 10.0 mi SSE 10.4 mph - N/A   Clear
4:56 PM 76.3 °F 48.9 °F 38% 29.96 in 10.0 mi SSE 10.4 mph 16.1 mph N/A   Clear
5:15 PM 76.5 °F 48.7 °F 38% 29.95 in 10.0 mi SSE 8.1 mph 16.1 mph N/A   Clear
5:36 PM 74.5 °F 49.3 °F 41% 29.95 in 10.0 mi SSE 8.1 mph - N/A   Clear
5:55 PM 74.3 °F 49.8 °F 42% 29.94 in 10.0 mi SSE 9.2 mph - N/A   Clear
6:16 PM 72.5 °F 50.7 °F 46% 29.94 in 10.0 mi SSE 8.1 mph - N/A   Clear
6:36 PM 70.7 °F 51.8 °F 51% 29.94 in 10.0 mi SE 8.1 mph - N/A   Clear
6:55 PM 70.7 °F 52.0 °F 51% 29.94 in 10.0 mi SSE 6.9 mph - N/A   Clear
7:16 PM 70.0 °F 52.2 °F 53% 29.94 in 10.0 mi SSE 8.1 mph - N/A   Clear
7:36 PM 69.1 °F 52.3 °F 55% 29.93 in 10.0 mi SSE 6.9 mph - N/A   Clear
7:55 PM 68.4 °F 52.2 °F 56% 29.93 in 10.0 mi SSE 5.8 mph - N/A   Clear
8:16 PM 66.0 °F 52.2 °F 61% 29.93 in 10.0 mi SE 5.8 mph - N/A   Clear
8:36 PM 65.8 °F 52.0 °F 61% 29.93 in 10.0 mi SE 8.1 mph - N/A   Clear
8:55 PM 65.8 °F 51.8 °F 60% 29.92 in 10.0 mi SE 9.2 mph - N/A   Clear
9:16 PM 65.8 °F 51.6 °F 60% 29.91 in 10.0 mi SSE 8.1 mph - N/A   Clear
9:36 PM 65.8 °F 51.4 °F 60% 29.90 in 10.0 mi SSE 9.2 mph - N/A   Clear
9:55 PM 65.5 °F 51.3 °F 60% 29.90 in 10.0 mi SSE 8.1 mph - N/A   Clear
10:16 PM 64.9 °F 51.1 °F 61% 29.89 in 10.0 mi SSE 9.2 mph - N/A   Clear
10:36 PM 65.3 °F 51.3 °F 60% 29.89 in 10.0 mi SSE 8.1 mph - N/A   Clear
10:55 PM 64.8 °F 51.4 °F 62% 29.88 in 10.0 mi SSE 10.4 mph 16.1 mph N/A   Clear
11:16 PM 64.6 °F 51.8 °F 63% 29.88 in 10.0 mi SSE 6.9 mph - N/A   Scattered Clouds
11:36 PM 65.3 °F 51.8 °F 62% 29.86 in 10.0 mi SSE 8.1 mph - N/A   Mostly Cloudy
11:56 PM 65.7 °F 51.4 °F 60% 29.86 in 10.0 mi SSE 9.2 mph - N/A   Mostly Cloudy